Location: Fort Wayne
(41.1310°N, 85.1290°W)
Time: 10:16:33
(UTC-04:00)

BREEZE-M DEB (TANK) - Visible Passes

Search period start: 31 August 2016 00:00
Search period end: 10 September 2016 00:00
Orbit: 284 x 13321 km, 49.6° (Epoch: 31 August)

Date Brightness Start Highest point End Pass type
(mag) Time Alt. Az. Time Alt. Az. Time Alt. Az.
31 Aug 5.2 00:31:10 10° WNW 00:37:52 29° W 00:37:52 29° W visible
31 Aug 5.4 20:51:16 10° W 21:26:23 61° N 21:32:51 14° E visible
01 Sep 4.0 22:15:39 10° WNW 22:36:46 73° NNE 22:38:48 47° E visible
02 Sep 4.2 23:32:41 10° WNW 23:44:44 55° W 23:44:44 55° W visible
03 Sep 5.7 19:41:19 10° W 20:30:03 63° N 20:38:37 10° ENE visible
04 Sep 5.8 00:47:07 10° WNW 00:50:37 16° W 00:50:37 16° W visible
04 Sep 4.8 21:12:08 10° WNW 21:40:59 66° NNE 21:45:31 24° E visible
05 Sep 3.6 22:32:43 10° WNW 22:50:36 86° SW 22:51:21 72° SE visible
06 Sep 5.0 23:48:12 10° WNW 23:57:10 32° W 23:57:10 32° W visible
07 Sep 5.5 20:04:35 10° W 20:44:31 64° N 20:52:00 10° E visible
08 Sep 4.2 21:30:32 10° WNW 21:54:47 78° NNE 21:57:45 37° ESE visible
09 Sep 4.0 22:48:26 10° WNW 23:03:25 58° SW 23:03:29 58° SW visible
